LiveATC.Net - Listen to live air traffic control over the Internet!
Airport/ARTCC Code
Frequency Search
(e.g., 124.400, 128.75)
Site-wide search
 


Browse Feeds
Top 50 Feeds
HF Oceanic Feeds
Coverage Map
Bad Weather Areas

LiveATC FAQ

Increase Coverage

Contact LiveATC.net
Press Inquiries

LiveATC on iPhone
LiveATC on Android

LiveATC Mobile
(Mobile browser)

ATC Audio Archives
Interesting Recordings

LiveATC Forums

Home Page
About LiveATC.net


Terms of Use
Privacy Policy

AIRMETs/SIGMETs

FAA Airport Status
NAS Status
Arrival Demand


Server Software By:
Icecast.org
Liquidsoap

Select an area of interest:
U.S. Feeds: Class B Airports | Class C Airports | Class D/Other Airports | ARTCC (Centers)
International Feeds: Canada | Europe | Oceania | Asia | South America | North/Central America | Africa
Misc Feeds: HF Feeds
Search by ICAO/IATA airport code:   (e.g., kbos, kjfk, lax, eham, etc.)


Currently Available Live Feeds: 3206
Status Updated: Sat Jun 15 2024 13:57:38 UTC


NOTICE

Unauthorized use prohibited. See LiveATC.net Terms of Service

Canada Airport Feeds

 

CEN4 CTAF (Archives)
High River, Alberta, Canada

Feed Status: UP
Listen in your browser - HTML5 player(in browser, HTML5)
Click here to listen with your own player(launches your MP3 player)

CEN4 Flight Activity (Flightaware)

Listeners: 0 out of 2103 total

High River CTAF: 123.000

CES4 CTAF
Westlock, Alberta, Canada

Feed Status: DOWN
Offline since: 2024-06-14 16:15:22 UTC

METAR NOT AVAILABLE

Westlock CTAF: 122.800

CES4 Emergency/Guard
Westlock, Alberta, Canada

Feed Status: DOWN
Offline since: 2024-06-14 16:15:22 UTC

METAR NOT AVAILABLE

Emergency/Guard: 121.500

CKK7 CTAF
Steinbach, Manitoba, Canada

Feed Status: DOWN
Offline since: 2024-06-15 13:57:22 UTC

Steinbach CTAF: 122.700

CNP3 CTAF (Archives)
Arnprior, Ontario, Canada

Feed Status: UP
Listen in your browser - HTML5 player(in browser, HTML5)
Click here to listen with your own player(launches your MP3 player)

CNP3 Flight Activity (Flightaware)

Listeners: 0 out of 2103 total

Arnprior Multicom/CTAF: 122.700

CSB3 CTAF (Archives)
St-Mathieu-De-Beloeil, Quebec, Canada

Feed Status: UP
Listen in your browser - HTML5 player(in browser, HTML5)
Click here to listen with your own player(launches your MP3 player)

CSB3 Flight Activity (Flightaware)

Listeners: 0 out of 2103 total

St-Mathieu-De-Beloeil CTAF: 122.700

CSG3 CTAF (Archives)
Joliette, Quebec, Canada

Feed Status: UP
Listen in your browser - HTML5 player(in browser, HTML5)
Click here to listen with your own player(launches your MP3 player)

CSG3 Flight Activity (Flightaware)

Listeners: 1 out of 2103 total

Joliette CTAF: 123.500

CSR3 CTAF (Archives)
Victoriaville, Quebec, Canada

Feed Status: UP
Listen in your browser - HTML5 player(in browser, HTML5)
Click here to listen with your own player(launches your MP3 player)

CSR3 Flight Activity (Flightaware)

Listeners: 0 out of 2103 total

Victoriaville CTAF/UNICOM: 123.350

CYRQ/CSR3 CTAF (Archives)
Victoriaville, Quebec, Canada

Feed Status: UP
Listen in your browser - HTML5 player(in browser, HTML5)
Click here to listen with your own player(launches your MP3 player)

CYRQ 151300Z AUTO 30007KT 280V020 9SM SCT029 13/05 A3008 RMK SLP188

CYRQ Flight Activity (Flightaware)

Listeners: 1 out of 2103 total

Trois-Rivieres CTAF/UNICOM: 122.350
Victoriaville CTAF/UNICOM: 123.350

CYAM ATIS (Archives)
Sault Ste. Marie, Ontario, Canada

Feed Status: UP
Listen in your browser - HTML5 player(in browser, HTML5)
Click here to listen with your own player(launches your MP3 player)

CYAM 151300Z 13004KT 090V160 20SM FEW075 BKN090 BKN240 14/08 A3024 RMK AC2AC3CI1 SLP246

CYAM Flight Activity (Flightaware)

Listeners: 0 out of 2103 total

Sault ATIS: 133.050

CYAM Ground/Misc (Archives)
Sault Ste. Marie, Ontario, Canada

Feed Status: UP
Listen in your browser - HTML5 player(in browser, HTML5)
Click here to listen with your own player(launches your MP3 player)

CYAM 151300Z 13004KT 090V160 20SM FEW075 BKN090 BKN240 14/08 A3024 RMK AC2AC3CI1 SLP246

CYAM Flight Activity (Flightaware)

Listeners: 0 out of 2103 total

London FIC: 123.475
London FIC: 126.700
Sault College: 130.700
Sault Ground: 121.700

CYAM Tower (Archives)
Sault Ste. Marie, Ontario, Canada

Feed Status: UP
Listen in your browser - HTML5 player(in browser, HTML5)
Click here to listen with your own player(launches your MP3 player)

CYAM 151300Z 13004KT 090V160 20SM FEW075 BKN090 BKN240 14/08 A3024 RMK AC2AC3CI1 SLP246

CYAM Flight Activity (Flightaware)

Listeners: 0 out of 2103 total

Sault Ste. Marie Tower: 118.800

Toronto Center (Sault High) (Archives)
Sault Ste. Marie, Ontario, Canada

Feed Status: UP
Listen in your browser - HTML5 player(in browser, HTML5)
Click here to listen with your own player(launches your MP3 player)

CZYZ Flight Activity (Flightaware)

Listeners: 2 out of 2103 total

Toronto Center (Sault High Sector): 134.425

Toronto Center (Sault Low) (Archives)
Sault Ste. Marie, Ontario, Canada

Feed Status: UP
Listen in your browser - HTML5 player(in browser, HTML5)
Click here to listen with your own player(launches your MP3 player)

CZYZ Flight Activity (Flightaware)

Listeners: 1 out of 2103 total

Toronto Center (Sault Low Sector): 132.650

CYAV Tower (Archives)
Winnipeg, Manitoba, Canada

Feed Status: UP
Listen in your browser - HTML5 player(in browser, HTML5)
Click here to listen with your own player(launches your MP3 player)

CYAV Flight Activity (Flightaware)

Listeners: 0 out of 2103 total

St. Andrews Tower: 118.500

CYAW ATIS (Archives)
Halifax, Nova Scotia, Canada

Feed Status: UP
Listen in your browser - HTML5 player(in browser, HTML5)
Click here to listen with your own player(launches your MP3 player)

CYAW Flight Activity (Flightaware)

Listeners: 0 out of 2103 total

Shearwater ATIS: 129.175

CYAW Gnd/Twr (Archives)
Halifax, Nova Scotia, Canada

Feed Status: UP
Listen in your browser - HTML5 player(in browser, HTML5)
Click here to listen with your own player(launches your MP3 player)

CYAW Flight Activity (Flightaware)

Listeners: 0 out of 2103 total

Shearwater Ground: 121.700
Shearwater Tower: 126.200

CYAW Gnd/Twr/Ops (Archives)
Halifax, Nova Scotia, Canada

Feed Status: UP
Listen in your browser - HTML5 player(in browser, HTML5)
Click here to listen with your own player(launches your MP3 player)

CYAW Flight Activity (Flightaware)

Listeners: 0 out of 2103 total

Shearwater FDC/Ops: 239.300
Shearwater Ground: 149.350
Shearwater Ground: 121.700
Shearwater Ground: 250.100
Shearwater Tower: 231.950
Shearwater Tower: 126.200
Shearwater Tower: 340.200

CYBP - Brooks
Brooks, Alberta, Canada

Feed Status: DOWN
Offline since: 2024-06-07 23:08:38 UTC

Brooks UNICOM: 122.800
Edmonton Center (North): 132.650
Edmonton Center (South): 125.050

CYBW Ground (Archives)
Calgary, Alberta, Canada

Feed Status: UP
Listen in your browser - HTML5 player(in browser, HTML5)
Click here to listen with your own player(launches your MP3 player)

CYBW 151300Z AUTO 32007KT 9SM BKN071 BKN096 OVC120 07/04 A2984 RMK SLP110

CYBW Flight Activity (Flightaware)

Listeners: 0 out of 2103 total

Springback Ground: 121.800

CYBW Tower (Inner) (Archives)
Calgary, Alberta, Canada

Feed Status: UP
Listen in your browser - HTML5 player(in browser, HTML5)
Click here to listen with your own player(launches your MP3 player)

CYBW 151300Z AUTO 32007KT 9SM BKN071 BKN096 OVC120 07/04 A2984 RMK SLP110

CYBW Flight Activity (Flightaware)

Listeners: 0 out of 2103 total

Springback Tower (Inner): 120.700

CYBW Tower (Outer)
Calgary, Alberta, Canada

Feed Status: DOWN
Offline since: 2024-06-02 20:36:21 UTC

CYBW 151300Z AUTO 32007KT 9SM BKN071 BKN096 OVC120 07/04 A2984 RMK SLP110

Springback Tower (Outer): 118.200

CYCG FSS/ATF/Guard/RDO (Archives)
Castlegar, British Columbia, Canada

Feed Status: UP
Listen in your browser - HTML5 player(in browser, HTML5)
Click here to listen with your own player(launches your MP3 player)

CYCG Flight Activity (Flightaware)

Listeners: 1 out of 2103 total

ATF: 123.200
Emergency/Guard: 121.500
Pacific Radio: 126.700
West Kootenay Regional Radio: 122.100

CYEG Approach (Archives)
Edmonton, Alberta, Canada

Feed Status: UP
Listen in your browser - HTML5 player(in browser, HTML5)
Click here to listen with your own player(launches your MP3 player)

CYEG 151300Z 20007KT 20SM FEW120 SCT240 07/06 A2980 RMK AC1CI4 AC TR CC ASOCTD SLP105

CYEG Flight Activity (Flightaware)

Listeners: 0 out of 2103 total

Edmonton Approach: 120.500

CYEG Del/Gnd/Misc (Archives)
Edmonton, Alberta, Canada

Feed Status: UP
Listen in your browser - HTML5 player(in browser, HTML5)
Click here to listen with your own player(launches your MP3 player)

CYEG 151300Z 20007KT 20SM FEW120 SCT240 07/06 A2980 RMK AC1CI4 AC TR CC ASOCTD SLP105

CYEG Flight Activity (Flightaware)

Listeners: 1 out of 2103 total

Edmonton Clearance Delivery: 124.100
Edmonton De-Ice: 122.775
Edmonton Ground: 121.700
Edmonton Radio (FIC): 122.375
Edmonton Radio (FIC): 126.700
Edmonton Radio (FIC): 122.500
Emergency/Guard: 121.500
Iceman: 130.125

CYEG Departure (Archives)
Edmonton, Alberta, Canada

Feed Status: UP
Listen in your browser - HTML5 player(in browser, HTML5)
Click here to listen with your own player(launches your MP3 player)

CYEG 151300Z 20007KT 20SM FEW120 SCT240 07/06 A2980 RMK AC1CI4 AC TR CC ASOCTD SLP105

CYEG Flight Activity (Flightaware)

Listeners: 1 out of 2103 total


CYEG Tower (Archives)
Edmonton, Alberta, Canada

Feed Status: UP
Listen in your browser - HTML5 player(in browser, HTML5)
Click here to listen with your own player(launches your MP3 player)

CYEG 151300Z 20007KT 20SM FEW120 SCT240 07/06 A2980 RMK AC1CI4 AC TR CC ASOCTD SLP105

CYEG Flight Activity (Flightaware)

Listeners: 0 out of 2103 total

Edmonton Tower: 118.300

CYEG VFR Advisory (Archives)
Edmonton, Alberta, Canada

Feed Status: UP
Listen in your browser - HTML5 player(in browser, HTML5)
Click here to listen with your own player(launches your MP3 player)

CYEG 151300Z 20007KT 20SM FEW120 SCT240 07/06 A2980 RMK AC1CI4 AC TR CC ASOCTD SLP105

CYEG Flight Activity (Flightaware)

Listeners: 0 out of 2103 total

Edmonton VFR Advisory: 119.500

CZEG Edmonton Center (FL280/below) (Archives)
Edmonton, Alberta, Canada

Feed Status: UP
Listen in your browser - HTML5 player(in browser, HTML5)
Click here to listen with your own player(launches your MP3 player)

CZEG Flight Activity (Flightaware)

Listeners: 4 out of 2103 total

Edmonton Center (ACC) (FL280 and below): 132.775

CZEG Edmonton Center (Lloydminster Sector) (Archives)
Edmonton, Alberta, Canada

Feed Status: UP
Listen in your browser - HTML5 player(in browser, HTML5)
Click here to listen with your own player(launches your MP3 player)

CZEG Flight Activity (Flightaware)

Listeners: 3 out of 2103 total

Edmonton Center (Lloydminster Sector Hi/Lo): 134.900

CYFB CTAF/RDO (Archives)
Iqaluit, Nunavut, Canada

Feed Status: UP
Listen in your browser - HTML5 player(in browser, HTML5)
Click here to listen with your own player(launches your MP3 player)

CYFB 151300Z 17005KT 20SM -RA OVC010 03/02 A2946 RMK SC8 SLP981

CYFB Flight Activity (Flightaware)

Listeners: 0 out of 2103 total

Iqaluit CTAF/Radio: 122.200
Iqaluit Ramp/Taxi Control: 122.925
Quebec Radio FIC: 126.700

CYFB Montreal Center (Archives)
Iqaluit, Nunavut, Canada

Feed Status: UP
Listen in your browser - HTML5 player(in browser, HTML5)
Click here to listen with your own player(launches your MP3 player)

CYFB 151300Z 17005KT 20SM -RA OVC010 03/02 A2946 RMK SC8 SLP981

CYFB Flight Activity (Flightaware)

Listeners: 3 out of 2103 total

Montreal Center (Brevoort Sector FL290 and above): 132.800
Montreal Center (Nuvilik Sector FL280 and below): 134.550

CYFB RDO/FIC/Edmonton Ctr (Archives)
Iqaluit, Nunavut, Canada

Feed Status: UP
Listen in your browser - HTML5 player(in browser, HTML5)
Click here to listen with your own player(launches your MP3 player)

CYFB 151300Z 17005KT 20SM -RA OVC010 03/02 A2946 RMK SC8 SLP981

CYFB Flight Activity (Flightaware)

Listeners: 3 out of 2103 total

Edmonton Center (Clyde Sector FL230 and above): 118.475
Emergency/Guard: 121.500
Gander Radio: 126.900
Quebec Radio FIC: 123.275

CYFC Ground/Tower (Archives)
Fredericton, New Brunswick, Canada

Feed Status: UP
Listen in your browser - HTML5 player(in browser, HTML5)
Click here to listen with your own player(launches your MP3 player)

CYFC 151300Z AUTO 33007KT 9SM BKN029 OVC120 16/14 A2985 RMK SLP111 DENSITY ALT 300FT

CYFC Flight Activity (Flightaware)

Listeners: 1 out of 2103 total

Fredericton Ground: 121.700
Fredericton Tower: 119.000

CYFD ATF (CTAF) (Archives)
Brantford, Ontario, Canada

Feed Status: UP
Listen in your browser - HTML5 player(in browser, HTML5)
Click here to listen with your own player(launches your MP3 player)

LWIS CYFD 151328Z AUTO 03003KT 20/M110 //// RMK SLP ADVISORY ONLY=

CYFD Flight Activity (Flightaware)

Listeners: 0 out of 2103 total

Brantford ATF (CTAF): 122.825

CYFD ATF (CTAF)/App (Archives)
Brantford, Ontario, Canada

Feed Status: UP
Listen in your browser - HTML5 player(in browser, HTML5)
Click here to listen with your own player(launches your MP3 player)

LWIS CYFD 151328Z AUTO 03003KT 20/M110 //// RMK SLP ADVISORY ONLY=

CYFD Flight Activity (Flightaware)

Listeners: 0 out of 2103 total

Brantford ATF (CTAF): 122.825
Toronto Terminal (West Satellite): 119.700

CYHC Del/Twr/App (Archives)
Vancouver, British Columbia, Canada

Feed Status: UP
Listen in your browser - HTML5 player(in browser, HTML5)
Click here to listen with your own player(launches your MP3 player)

METAR NOT AVAILABLE

CYHC Flight Activity (Flightaware)

Listeners: 0 out of 2103 total

Vancouver Harbour Clearance Delivery: 125.350
Vancouver Harbour Tower: 118.400
Vancouver Terminal: 125.200

CYHU Tower (Archives)
Montreal, Quebec, Canada

Feed Status: UP
Listen in your browser - HTML5 player(in browser, HTML5)
Click here to listen with your own player(launches your MP3 player)

CYHU 151300Z AUTO 34011KT 330V030 9SM CLR 15/06 A3010 RMK SLP194

CYHU Flight Activity (Flightaware)

Listeners: 3 out of 2103 total

Saint-Hubert Tower: 121.300
Saint-Hubert Tower: 118.400

CYHZ Del/Gnd/Twr/App (Archives)
Halifax, Nova Scotia, Canada

Feed Status: UP
Listen in your browser - HTML5 player(in browser, HTML5)
Click here to listen with your own player(launches your MP3 player)

CYHZ 151300Z 18009KT 12SM -RA BKN003 OVC026 14/14 A2984 RMK ST7SC1 SLP108

CYHZ Flight Activity (Flightaware)

Listeners: 7 out of 2103 total

Halifax Arrival/Departure: 119.200
Halifax Clearance Delivery: 123.950
Halifax Ground: 121.900
Halifax Terminal (backup): 128.550
Halifax Terminal VFR: 118.700
Halifax Tower: 118.400
London Radio FIC: 123.275
Moncton Center PAL Low: 135.300

CYJN Ground/Tower (Archives)
St. Jean, Quebec, Canada

Feed Status: UP
Listen in your browser - HTML5 player(in browser, HTML5)
Click here to listen with your own player(launches your MP3 player)

CYJN Flight Activity (Flightaware)

Listeners: 3 out of 2103 total

St. Jean Ground: 121.700
St. Jean Tower: 118.200

CYKF Ground (Archives)
Waterloo, Ontario, Canada

Feed Status: UP
Listen in your browser - HTML5 player(in browser, HTML5)
Click here to listen with your own player(launches your MP3 player)

CYKF 151300Z AUTO 06005KT 330V080 9SM CLR 16/10 A3017 RMK SLP219

CYKF Flight Activity (Flightaware)

Listeners: 0 out of 2103 total

Waterloo Ground: 121.800

CYKF Toronto Center (West Sat) (Archives)
Waterloo, Ontario, Canada

Feed Status: UP
Listen in your browser - HTML5 player(in browser, HTML5)
Click here to listen with your own player(launches your MP3 player)

CYKF 151300Z AUTO 06005KT 330V080 9SM CLR 16/10 A3017 RMK SLP219

CYKF Flight Activity (Flightaware)

Listeners: 0 out of 2103 total

Toronto Center (West Satellite - Kitchener): 128.275

CYKF Tower (Archives)
Waterloo, Ontario, Canada

Feed Status: UP
Listen in your browser - HTML5 player(in browser, HTML5)
Click here to listen with your own player(launches your MP3 player)

CYKF 151300Z AUTO 06005KT 330V080 9SM CLR 16/10 A3017 RMK SLP219

CYKF Flight Activity (Flightaware)

Listeners: 2 out of 2103 total

Waterloo Tower: 126.000

CYLW Ground (Archives)
Kelowna, British Columbia, Canada

Feed Status: UP
Listen in your browser - HTML5 player(in browser, HTML5)
Click here to listen with your own player(launches your MP3 player)

CYLW 151300Z AUTO 13005KT 9SM -RA BKN055 OVC068 11/06 A2986 RMK SLP112

CYLW Flight Activity (Flightaware)

Listeners: 0 out of 2103 total

Kelowna Ground: 121.700

CYLW Tower (Archives)
Kelowna, British Columbia, Canada

Feed Status: UP
Listen in your browser - HTML5 player(in browser, HTML5)
Click here to listen with your own player(launches your MP3 player)

CYLW 151300Z AUTO 13005KT 9SM -RA BKN055 OVC068 11/06 A2986 RMK SLP112

CYLW Flight Activity (Flightaware)

Listeners: 0 out of 2103 total

Kelowna Tower/Approach: 119.600

CYMJ Radio (Archives)
Moose Jaw, Saskatchewan, Canada

Feed Status: UP
Listen in your browser - HTML5 player(in browser, HTML5)
Click here to listen with your own player(launches your MP3 player)

CYMJ 141724Z 13012KT 15SM FEW120 BKN240 23/07 A2992 RMK AC1CS6 DENSITY ALT 3439FT HALO LAST OBS /NEXT 171000 UTC SLP134

CYMJ Flight Activity (Flightaware)

Listeners: 1 out of 2103 total

Moose Jaw Arrival: 227.600
Moose Jaw Departure: 234.400
Moose Jaw Ground: 275.800
Moose Jaw Tower (Inner): 295.600
Moose Jaw Tower (Outer): 310.800

CYMX Gnd/Twr/Radio (Archives)
Montreal, Quebec, Canada

Feed Status: UP
Listen in your browser - HTML5 player(in browser, HTML5)
Click here to listen with your own player(launches your MP3 player)

CYMX 151300Z 35008KT 45SM FEW032 FEW065 SCT240 13/05 A3012 RMK CF1SC1CI1 SLP203

CYMX Flight Activity (Flightaware)

Listeners: 2 out of 2103 total

Mirabel Ground: 121.800
Mirabel Tower/Radio: 119.100

CYNJ Ground (Archives)
Langley, British Columbia, Canada

Feed Status: UP
Listen in your browser - HTML5 player(in browser, HTML5)
Click here to listen with your own player(launches your MP3 player)

METAR NOT AVAILABLE

CYNJ Flight Activity (Flightaware)

Listeners: 0 out of 2103 total

Langley Ground: 121.900

CYNJ Tower (Archives)
Langley, British Columbia, Canada

Feed Status: UP
Listen in your browser - HTML5 player(in browser, HTML5)
Click here to listen with your own player(launches your MP3 player)

METAR NOT AVAILABLE

CYNJ Flight Activity (Flightaware)

Listeners: 0 out of 2103 total

Langley Tower: 119.000

CYOO Ground (Archives)
Oshawa, Ontario, Canada

Feed Status: UP
Listen in your browser - HTML5 player(in browser, HTML5)
Click here to listen with your own player(launches your MP3 player)

CYOO 151300Z AUTO 36007KT 9SM CLR 16/09 A3013 RMK SLP206

CYOO Flight Activity (Flightaware)

Listeners: 1 out of 2103 total

Oshawa Ground: 118.400

CYOO Tower (Archives)
Oshawa, Ontario, Canada

Feed Status: UP
Listen in your browser - HTML5 player(in browser, HTML5)
Click here to listen with your own player(launches your MP3 player)

CYOO 151300Z AUTO 36007KT 9SM CLR 16/09 A3013 RMK SLP206

CYOO Flight Activity (Flightaware)

Listeners: 5 out of 2103 total

Oshawa Tower: 120.100

CYOW Gnd/Twr/App (Archives)
Ottawa, Ontario, Canada

Feed Status: UP
Listen in your browser - HTML5 player(in browser, HTML5)
Click here to listen with your own player(launches your MP3 player)

CYOW 151300Z 02012KT 15SM FEW020 BKN046 13/05 A3015 RMK CU1SC7 CU TR SLP212

CYOW Flight Activity (Flightaware)

Listeners: 8 out of 2103 total

De-Icing (Ice Man): 122.350
De-Icing (Pad Control): 122.925
Ottawa Ground: 121.900
Ottawa Terminal: 127.700
Ottawa Terminal (Arrivals): 135.150
Ottawa Terminal (Departures): 128.175
Ottawa Tower: 118.800
Ottawa Tower: 120.100

CYPK Tower (Archives)
Pitt Meadows, British Columbia, Canada

Feed Status: UP
Listen in your browser - HTML5 player(in browser, HTML5)
Click here to listen with your own player(launches your MP3 player)

CYPK Flight Activity (Flightaware)

Listeners: 0 out of 2103 total

Pitt Meadows Tower: 126.300

CYPQ AWOS (Archives)
Peterborough, Ontario, Canada

Feed Status: UP
Listen in your browser - HTML5 player(in browser, HTML5)
Click here to listen with your own player(launches your MP3 player)

CYPQ 151300Z AUTO 03005KT 350V060 9SM CLR 15/09 A3014 RMK SLP208

CYPQ Flight Activity (Flightaware)

Listeners: 0 out of 2103 total

Peterborough AWOS: 126.925

CYPQ Dispatch/UNICOM (Archives)
Peterborough, Ontario, Canada

Feed Status: UP
Listen in your browser - HTML5 player(in browser, HTML5)
Click here to listen with your own player(launches your MP3 player)

CYPQ 151300Z AUTO 03005KT 350V060 9SM CLR 15/09 A3014 RMK SLP208

CYPQ Flight Activity (Flightaware)

Listeners: 0 out of 2103 total

Seneca Dispatch: 122.225

CYPQ Regional/Radar (Archives)
Peterborough, Ontario, Canada

Feed Status: UP
Listen in your browser - HTML5 player(in browser, HTML5)
Click here to listen with your own player(launches your MP3 player)

CYPQ 151300Z AUTO 03005KT 350V060 9SM CLR 15/09 A3014 RMK SLP208

CYPQ Flight Activity (Flightaware)

Listeners: 1 out of 2103 total

Toronto Centre - YYZ ACC (East Radar): 134.250

CYPQ UNICOM/Guard (Archives)
Peterborough, Ontario, Canada

Feed Status: UP
Listen in your browser - HTML5 player(in browser, HTML5)
Click here to listen with your own player(launches your MP3 player)

CYPQ 151300Z AUTO 03005KT 350V060 9SM CLR 15/09 A3014 RMK SLP208

CYPQ Flight Activity (Flightaware)

Listeners: 0 out of 2103 total

Peterborough UNICOM: 123.000

CYQB App/Dep (Terminal/124.0) (Archives)
Quebec, Quebec, Canada

Feed Status: UP
Listen in your browser - HTML5 player(in browser, HTML5)
Click here to listen with your own player(launches your MP3 player)

CYQB 151300Z 36004KT 310V060 30SM FEW040 BKN058 BKN250 14/05 A3004 RMK CU1SC5CI1 CI TR SLP176

CYQB Flight Activity (Flightaware)

Listeners: 2 out of 2103 total

Quebec Terminal: 124.000

CYQB App/Dep (Terminal/127.85) (Archives)
Quebec, Quebec, Canada

Feed Status: UP
Listen in your browser - HTML5 player(in browser, HTML5)
Click here to listen with your own player(launches your MP3 player)

CYQB 151300Z 36004KT 310V060 30SM FEW040 BKN058 BKN250 14/05 A3004 RMK CU1SC5CI1 CI TR SLP176

CYQB Flight Activity (Flightaware)

Listeners: 2 out of 2103 total

Quebec Terminal: 127.850

CYQB ATIS (English) (Archives)
Quebec, Quebec, Canada

Feed Status: UP
Listen in your browser - HTML5 player(in browser, HTML5)
Click here to listen with your own player(launches your MP3 player)

CYQB 151300Z 36004KT 310V060 30SM FEW040 BKN058 BKN250 14/05 A3004 RMK CU1SC5CI1 CI TR SLP176

CYQB Flight Activity (Flightaware)

Listeners: 0 out of 2103 total

Quebec City ATIS (English): 134.600

CYQB ATIS (French) (Archives)
Quebec, Quebec, Canada

Feed Status: UP
Listen in your browser - HTML5 player(in browser, HTML5)
Click here to listen with your own player(launches your MP3 player)

CYQB 151300Z 36004KT 310V060 30SM FEW040 BKN058 BKN250 14/05 A3004 RMK CU1SC5CI1 CI TR SLP176

CYQB Flight Activity (Flightaware)

Listeners: 1 out of 2103 total

Quebec City ATIS (French): 128.300

CYQB Flight Service (Archives)
Quebec, Quebec, Canada

Feed Status: UP
Listen in your browser - HTML5 player(in browser, HTML5)
Click here to listen with your own player(launches your MP3 player)

CYQB 151300Z 36004KT 310V060 30SM FEW040 BKN058 BKN250 14/05 A3004 RMK CU1SC5CI1 CI TR SLP176

CYQB Flight Activity (Flightaware)

Listeners: 0 out of 2103 total

Quebec Radio Flight Service: 126.700

CYQB Flight Service (FIS) (Archives)
Quebec, Quebec, Canada

Feed Status: UP
Listen in your browser - HTML5 player(in browser, HTML5)
Click here to listen with your own player(launches your MP3 player)

CYQB 151300Z 36004KT 310V060 30SM FEW040 BKN058 BKN250 14/05 A3004 RMK CU1SC5CI1 CI TR SLP176

CYQB Flight Activity (Flightaware)

Listeners: 0 out of 2103 total

Quebec Radio Flight Service (FIS): 123.275

CYQB Ground/Tower (Archives)
Quebec, Quebec, Canada

Feed Status: UP
Listen in your browser - HTML5 player(in browser, HTML5)
Click here to listen with your own player(launches your MP3 player)

CYQB 151300Z 36004KT 310V060 30SM FEW040 BKN058 BKN250 14/05 A3004 RMK CU1SC5CI1 CI TR SLP176

CYQB Flight Activity (Flightaware)

Listeners: 5 out of 2103 total

Quebec City Ground: 121.900
Quebec City Tower: 118.650

Montreal Center (Drummond/133.225) (Archives)
Quebec, Quebec, Canada

Feed Status: UP
Listen in your browser - HTML5 player(in browser, HTML5)
Click here to listen with your own player(launches your MP3 player)

CYQB 151300Z 36004KT 310V060 30SM FEW040 BKN058 BKN250 14/05 A3004 RMK CU1SC5CI1 CI TR SLP176

CYQB Flight Activity (Flightaware)

Listeners: 1 out of 2103 total

Montreal Center (Drummond Sector): 133.225

Montreal Center (Drummond/135.025) (Archives)
Quebec, Quebec, Canada

Feed Status: UP
Listen in your browser - HTML5 player(in browser, HTML5)
Click here to listen with your own player(launches your MP3 player)

CYQB 151300Z 36004KT 310V060 30SM FEW040 BKN058 BKN250 14/05 A3004 RMK CU1SC5CI1 CI TR SLP176

CYQB Flight Activity (Flightaware)

Listeners: 2 out of 2103 total

Montreal Center (Drummond Sector): 135.025

Montreal Center (Levis/123.925) (Archives)
Quebec, Quebec, Canada

Feed Status: UP
Listen in your browser - HTML5 player(in browser, HTML5)
Click here to listen with your own player(launches your MP3 player)

CYQB 151300Z 36004KT 310V060 30SM FEW040 BKN058 BKN250 14/05 A3004 RMK CU1SC5CI1 CI TR SLP176

CYQB Flight Activity (Flightaware)

Listeners: 2 out of 2103 total

Montreal Center (Levis Sector): 123.925

CYQG Gnd/Twr/App/Misc (Archives)
Windsor, Ontario, Canada

Feed Status: UP
Listen in your browser - HTML5 player(in browser, HTML5)
Click here to listen with your own player(launches your MP3 player)

CYQG 151300Z AUTO 04006KT 9SM CLR 19/11 A3022 RMK SLP234 DENSITY ALT 900FT

CYQG Flight Activity (Flightaware)

Listeners: 2 out of 2103 total

Detroit Approach: 134.300
Great Lakes ESSO: 122.950
Jazz Air: 131.775
London RCO: 123.375
Windsor Ground: 121.700
Windsor Tower: 124.700

CYQI CTAF/UNICOM (Archives)
Yarmouth, Nova Scotia, Canada

Feed Status: UP
Listen in your browser - HTML5 player(in browser, HTML5)
Click here to listen with your own player(launches your MP3 player)

CYQI 151300Z 23003KT 170V270 1/4SM -SHRA FG VV002 14/14 A2982 RMK FG8 SLP100

CYQI Flight Activity (Flightaware)

Listeners: 0 out of 2103 total

Yarmouth CTAF/UNICOM: 123.000

CYQI Halifax FIC (Archives)
Yarmouth, Nova Scotia, Canada

Feed Status: UP
Listen in your browser - HTML5 player(in browser, HTML5)
Click here to listen with your own player(launches your MP3 player)

CYQI 151300Z 23003KT 170V270 1/4SM -SHRA FG VV002 14/14 A2982 RMK FG8 SLP100

CYQI Flight Activity (Flightaware)

Listeners: 0 out of 2103 total

Halifax FIC (CYQI Area): 126.700

CYQI Wildfire/SAR Aircraft (Archives)
Yarmouth, Nova Scotia, Canada

Feed Status: UP
Listen in your browser - HTML5 player(in browser, HTML5)
Click here to listen with your own player(launches your MP3 player)

CYQI 151300Z 23003KT 170V270 1/4SM -SHRA FG VV002 14/14 A2982 RMK FG8 SLP100

CYQI Flight Activity (Flightaware)

Listeners: 1 out of 2103 total

Provincial Aircraft/Wildfires/SAR: 122.400

Moncton Center (TUSKY/BRADD High) (Archives)
Yarmouth, Nova Scotia, Canada

Feed Status: UP
Listen in your browser - HTML5 player(in browser, HTML5)
Click here to listen with your own player(launches your MP3 player)

CYQI 151300Z 23003KT 170V270 1/4SM -SHRA FG VV002 14/14 A2982 RMK FG8 SLP100

CYQI Flight Activity (Flightaware)

Listeners: 1 out of 2103 total

Moncton Center (TUSKY/BRADD Sector): 135.200

Moncton Center (TUSKY/BRADD/WHALE/KANNNI) (Archives)
Yarmouth, Nova Scotia, Canada

Feed Status: UP
Listen in your browser - HTML5 player(in browser, HTML5)
Click here to listen with your own player(launches your MP3 player)

CYQI 151300Z 23003KT 170V270 1/4SM -SHRA FG VV002 14/14 A2982 RMK FG8 SLP100

CYQI Flight Activity (Flightaware)

Listeners: 1 out of 2103 total

Moncton Center (TUSKY/BRADD Sector): 135.200
Moncton Center (WHALE /KANNI Sector): 132.975

Moncton Center (VITOL/High) (Archives)
Yarmouth, Nova Scotia, Canada

Feed Status: UP
Listen in your browser - HTML5 player(in browser, HTML5)
Click here to listen with your own player(launches your MP3 player)

CYQI 151300Z 23003KT 170V270 1/4SM -SHRA FG VV002 14/14 A2982 RMK FG8 SLP100

CYQI Flight Activity (Flightaware)

Listeners: 2 out of 2103 total

Moncton Center (Vitol Sector): 128.375

Moncton Center (WHALE/KANNI High) (Archives)
Yarmouth, Nova Scotia, Canada

Feed Status: UP
Listen in your browser - HTML5 player(in browser, HTML5)
Click here to listen with your own player(launches your MP3 player)

CYQI 151300Z 23003KT 170V270 1/4SM -SHRA FG VV002 14/14 A2982 RMK FG8 SLP100

CYQI Flight Activity (Flightaware)

Listeners: 1 out of 2103 total

Moncton Center (WHALE /KANNI Sector): 132.975

CYQM App/Dep (Archives)
Moncton, New Brunswick, Canada

Feed Status: UP
Listen in your browser - HTML5 player(in browser, HTML5)
Click here to listen with your own player(launches your MP3 player)

CYQM 151300Z 35004KT 8SM -RA BKN005 OVC030 16/15 A2982 RMK SF7SC1 SLP102 DENSITY ALT 600FT

CYQM Flight Activity (Flightaware)

Listeners: 0 out of 2103 total

Moncton Radar: 124.400

CYQM Gnd/Twr/Misc (Archives)
Moncton, New Brunswick, Canada

Feed Status: UP
Listen in your browser - HTML5 player(in browser, HTML5)
Click here to listen with your own player(launches your MP3 player)

CYQM 151300Z 35004KT 8SM -RA BKN005 OVC030 16/15 A2982 RMK SF7SC1 SLP102 DENSITY ALT 600FT

CYQM Flight Activity (Flightaware)

Listeners: 3 out of 2103 total

London FIC RCO: 122.500
London FIC RCO: 126.700
Moncton Flight College: 123.350
Moncton Ground: 121.800
Moncton Tower: 120.800

CYQM Moncton Center High (Archives)
Moncton, New Brunswick, Canada

Feed Status: UP
Listen in your browser - HTML5 player(in browser, HTML5)
Click here to listen with your own player(launches your MP3 player)

CZQM Flight Activity (Flightaware)

Listeners: 3 out of 2103 total

Moncton Center (Freddy Sector, High): 132.700
Moncton Center (Fundy Sector, High): 127.125
Moncton Center (Miils Sector): 133.875

CYQM Moncton Center Low (Archives)
Moncton, New Brunswick, Canada

Feed Status: UP
Listen in your browser - HTML5 player(in browser, HTML5)
Click here to listen with your own player(launches your MP3 player)

CZQM Flight Activity (Flightaware)

Listeners: 4 out of 2103 total

Moncton Center: 132.500
Moncton Center (Digby Sector, Low): 132.200

CYQR Gnd/Twr/Center
Regina, Saskatchewan, Canada

Feed Status: DOWN
Offline since: 2024-06-10 15:03:39 UTC

CYQR 151300Z 13005KT 15SM FEW190 OVC270 14/12 A2968 RMK AC2CI6 SLP056 DENSITY ALT 2500FT

Regina Ground: 121.900
Regina Tower: 118.600
Winnipeg Centre: 120.100
Winnipeg Centre (Great Plains Sector): 123.800

CYQT Ground/Tower (Archives)
Thunder Bay, Ontario, Canada

Feed Status: UP
Listen in your browser - HTML5 player(in browser, HTML5)
Click here to listen with your own player(launches your MP3 player)

CYQT 151300Z 15005KT 040V170 20SM SCT100 14/09 A3009 RMK AC4 SLP196

CYQT Flight Activity (Flightaware)

Listeners: 1 out of 2103 total

Thunder Bay Ground: 121.900
Thunder Bay Tower: 118.100

CYRQ CTAF (Archives)
Trois-Rivieres, Quebec, Canada

Feed Status: UP
Listen in your browser - HTML5 player(in browser, HTML5)
Click here to listen with your own player(launches your MP3 player)

CYRQ 151300Z AUTO 30007KT 280V020 9SM SCT029 13/05 A3008 RMK SLP188

CYRQ Flight Activity (Flightaware)

Listeners: 0 out of 2103 total

Trois-Rivieres CTAF/UNICOM: 122.350

CYRQ/CSR3 CTAF (Archives)
Trois-Rivieres, Quebec, Canada

Feed Status: UP
Listen in your browser - HTML5 player(in browser, HTML5)
Click here to listen with your own player(launches your MP3 player)

CYRQ 151300Z AUTO 30007KT 280V020 9SM SCT029 13/05 A3008 RMK SLP188

CYRQ Flight Activity (Flightaware)

Listeners: 1 out of 2103 total

Trois-Rivieres CTAF/UNICOM: 122.350
Victoriaville CTAF/UNICOM: 123.350

CYSB Gnd/Twr/Center (Archives)
Sudbury, Ontario, Canada

Feed Status: UP
Listen in your browser - HTML5 player(in browser, HTML5)
Click here to listen with your own player(launches your MP3 player)

CYSB 151300Z 00000KT 20SM SKC 12/02 A3024 RMK SLP249

CYSB Flight Activity (Flightaware)

Listeners: 3 out of 2103 total

Sudbury Ground: 121.800
Sudbury Tower: 125.500
Toronto Centre: 135.500

CYSC AWOS (Archives)
Sherbrooke, Quebec, Canada

Feed Status: UP
Listen in your browser - HTML5 player(in browser, HTML5)
Click here to listen with your own player(launches your MP3 player)

CYSC 151300Z AUTO 29012KT 260V340 9SM FEW250 13/06 A3004 RMK SLP177

CYSC Flight Activity (Flightaware)

Listeners: 0 out of 2103 total

Sherbrooke AWOS: 126.250

CYSC CTAF (Archives)
Sherbrooke, Quebec, Canada

Feed Status: UP
Listen in your browser - HTML5 player(in browser, HTML5)
Click here to listen with your own player(launches your MP3 player)

CYSC 151300Z AUTO 29012KT 260V340 9SM FEW250 13/06 A3004 RMK SLP177

CYSC Flight Activity (Flightaware)

Listeners: 0 out of 2103 total

Sherbrooke CTAF: 123.500

CYSC Emergency/Guard (Archives)
Sherbrooke, Quebec, Canada

Feed Status: UP
Listen in your browser - HTML5 player(in browser, HTML5)
Click here to listen with your own player(launches your MP3 player)

CYSC 151300Z AUTO 29012KT 260V340 9SM FEW250 13/06 A3004 RMK SLP177

CYSC Flight Activity (Flightaware)

Listeners: 0 out of 2103 total

Emergency/Guard: 121.500

CYSC RCO/GCO (Archives)
Sherbrooke, Quebec, Canada

Feed Status: UP
Listen in your browser - HTML5 player(in browser, HTML5)
Click here to listen with your own player(launches your MP3 player)

CYSC 151300Z AUTO 29012KT 260V340 9SM FEW250 13/06 A3004 RMK SLP177

CYSC Flight Activity (Flightaware)

Listeners: 1 out of 2103 total

Sherbrooke RCO/GCO: 123.250

CYSC ZUL 132.55 (Archives)
Sherbrooke, Quebec, Canada

Feed Status: UP
Listen in your browser - HTML5 player(in browser, HTML5)
Click here to listen with your own player(launches your MP3 player)

CYSC 151300Z AUTO 29012KT 260V340 9SM FEW250 13/06 A3004 RMK SLP177

CYSC Flight Activity (Flightaware)

Listeners: 2 out of 2103 total

Montreal Center: 132.550

CYSC ZUL 133.225 (Archives)
Sherbrooke, Quebec, Canada

Feed Status: UP
Listen in your browser - HTML5 player(in browser, HTML5)
Click here to listen with your own player(launches your MP3 player)

CYSC 151300Z AUTO 29012KT 260V340 9SM FEW250 13/06 A3004 RMK SLP177

CYSC Flight Activity (Flightaware)

Listeners: 2 out of 2103 total

Montreal Center: 133.225

CYTS ATIS
Timmins, Ontario, Canada

Feed Status: DOWN
Offline since: 2023-06-29 22:56:38 UTC

CYTS 151300Z 20004KT 180V250 15SM FEW060 SCT220 11/04 A3023 RMK SC1CI3 SC TR SLP247

Timmins ATIS: 124.950

CYTS FSS/Misc (Archives)
Timmins, Ontario, Canada

Feed Status: UP
Listen in your browser - HTML5 player(in browser, HTML5)
Click here to listen with your own player(launches your MP3 player)

CYTS 151300Z 20004KT 180V250 15SM FEW060 SCT220 11/04 A3023 RMK SC1CI3 SC TR SLP247

CYTS Flight Activity (Flightaware)

Listeners: 0 out of 2103 total

Air Canada Jazz: 130.875
Air Creebec: 129.050
CTAF: 122.200
CTAF: 122.000
CTAF: 122.800
Field Maintenance: 122.600
FSS: 122.300
General Traffic: 126.700
London RDO: 123.550
South Porcupine: 123.300

CZUL ACC (Noranda Sector) (Archives)
Timmins, Ontario, Canada

Feed Status: UP
Listen in your browser - HTML5 player(in browser, HTML5)
Click here to listen with your own player(launches your MP3 player)

CYUL 151300Z 35009KT 320V020 30SM FEW035 FEW075 FEW250 14/05 A3011 RMK CU1AC1CI1 CU TR CI TR SLP198

CYUL Flight Activity (Flightaware)

Listeners: 3 out of 2103 total

Montreal Center (Brevoort Sector) : 133.200
Montreal Center (Brevoort Sector) : 134.850
Montreal Center (Brevoort Sector) : 132.800
Montreal Center (Caniapiscau Sector) : 119.400
Montreal Center (Chibougamau Sector) : 133.025
Montreal Center (Fontages Sector) : 134.325
Montreal Center (LaGrande Sector) : 133.775
Montreal Center (Moosonee Sector*) : 118.975
Montreal Center (Noranda Sector) : 133.975
Montreal Center (Rouyn Sector*): 120.725
Montreal Center (Unknown Sector) : 132.675

Toronto Center (Timmins) (Archives)
Timmins, Ontario, Canada

Feed Status: UP
Listen in your browser - HTML5 player(in browser, HTML5)
Click here to listen with your own player(launches your MP3 player)

CZYZ Flight Activity (Flightaware)

Listeners: 2 out of 2103 total

Moosonee CYMO: 133.725
North Bay CYYB (8pm-7am M-F and 24h Sat-Sun): 127.250
Sudbury CYSB (8pm-7am M-F and 24h Sat-Sun): 135.500
Toronto Center (North Bay High Sector): 121.225
Toronto Center (Sault High Sector): 134.425
Toronto Center (Sault Low Elliot Lake Sector): 135.400
Toronto Center (Timmins Sector): 128.300
Toronto Center (Wawa Sector): 124.075

CYTZ Approach (Archives)
Toronto, Ontario, Canada

Feed Status: UP
Listen in your browser - HTML5 player(in browser, HTML5)
Click here to listen with your own player(launches your MP3 player)

CYTZ 151300Z AUTO 29006KT 230V340 7SM CLR 18/09 A3014 RMK SLP210

CYTZ Flight Activity (Flightaware)

Listeners: 0 out of 2103 total

Toronto Center (Hamilton Sector, West Low): 132.475
Toronto Terminal (East): 133.400
Toronto Terminal (West Satellite): 119.300

CYTZ Tower (Archives)
Toronto, Ontario, Canada

Feed Status: UP
Listen in your browser - HTML5 player(in browser, HTML5)
Click here to listen with your own player(launches your MP3 player)

CYTZ 151300Z AUTO 29006KT 230V340 7SM CLR 18/09 A3014 RMK SLP210

CYTZ Flight Activity (Flightaware)

Listeners: 2 out of 2103 total

Island (Billy Bishop) Tower: 118.200

CYUL Approach/Departure (Archives)
Montreal, Quebec, Canada

Feed Status: UP
Listen in your browser - HTML5 player(in browser, HTML5)
Click here to listen with your own player(launches your MP3 player)

CYUL 151300Z 35009KT 320V020 30SM FEW035 FEW075 FEW250 14/05 A3011 RMK CU1AC1CI1 CU TR CI TR SLP198

CYUL Flight Activity (Flightaware)

Listeners: 5 out of 2103 total

Montreal Terminal: 126.900
Montreal Terminal: 124.650
Montreal Terminal: 118.900
Montreal Terminal: 132.850
Montreal Terminal: 125.150
Montreal Terminal: 120.425
VFR Advisory: 134.150

CYUL De-icing Ops (Archives)
Montreal, Quebec, Canada

Feed Status: UP
Listen in your browser - HTML5 player(in browser, HTML5)
Click here to listen with your own player(launches your MP3 player)

CYUL 151300Z 35009KT 320V020 30SM FEW035 FEW075 FEW250 14/05 A3011 RMK CU1AC1CI1 CU TR CI TR SLP198

CYUL Flight Activity (Flightaware)

Listeners: 1 out of 2103 total

Emergency Comms: 123.175
Emergency Comms: 122.675
Emergency/Guard: 121.500
Montreal De-icing Coordinator: 123.125
Montreal De-icing Traffic: 122.525

CYUL Del/Ground/Apron (Archives)
Montreal, Quebec, Canada

Feed Status: UP
Listen in your browser - HTML5 player(in browser, HTML5)
Click here to listen with your own player(launches your MP3 player)

CYUL 151300Z 35009KT 320V020 30SM FEW035 FEW075 FEW250 14/05 A3011 RMK CU1AC1CI1 CU TR CI TR SLP198

CYUL Flight Activity (Flightaware)

Listeners: 4 out of 2103 total

Montreal Apron: 122.075
Montreal Clearance Delivery: 125.600
Montreal Ground (East): 121.900
Montreal Ground (West): 121.000

CYUL Tower (Archives)
Montreal, Quebec, Canada

Feed Status: UP
Listen in your browser - HTML5 player(in browser, HTML5)
Click here to listen with your own player(launches your MP3 player)

CYUL 151300Z 35009KT 320V020 30SM FEW035 FEW075 FEW250 14/05 A3011 RMK CU1AC1CI1 CU TR CI TR SLP198

CYUL Flight Activity (Flightaware)

Listeners: 4 out of 2103 total

Montreal Tower: 119.900
Montreal Tower: 119.300
Montreal Tower: 124.300

CZUL Center (Montreal) (Archives)
Montreal, Quebec, Canada

Feed Status: UP
Listen in your browser - HTML5 player(in browser, HTML5)
Click here to listen with your own player(launches your MP3 player)

CYUL 151300Z 35009KT 320V020 30SM FEW035 FEW075 FEW250 14/05 A3011 RMK CU1AC1CI1 CU TR CI TR SLP198

CYUL Flight Activity (Flightaware)

Listeners: 4 out of 2103 total

Montreal Center (Aylmer Sector - FL290 and above): 134.400
Montreal Center (Drummond Sector - FL280 and above): 133.225
Montreal Center (Granby Sector - FL280 and above): 132.350
Montreal Center (Granby Sector - FL280 and below): 132.550
Montreal Center (Laurier Sector - FL280 and below): 126.575
Montreal Center (Laurier Sector - FL290 and below): 135.600
Montreal Center (Levis Sector - FL290 and above): 123.925
Montreal Center (Pontiac Sector - FL290 and above): 127.875
Montreal Center (Rawdon Sector - FL290 and below): 128.225
Montreal Center (Thurso Sector - FL280 and below): 128.775

CZUL Center (Vallie Sector) (Archives)
Montreal, Quebec, Canada

Feed Status: UP
Listen in your browser - HTML5 player(in browser, HTML5)
Click here to listen with your own player(launches your MP3 player)

CZUL Flight Activity (Flightaware)

Listeners: 2 out of 2103 total

Montreal Center (Vallie Sector FL280/below): 134.975

CYVK CTAF/UNICOM
Vernon, British Columbia, Canada

Feed Status: DOWN
Offline since: 2023-12-02 18:51:05 UTC

Vernon CTAF/UNICOM: 122.800

CYVO Gnd/RDO/Center (Archives)
Val-D'Or, Quebec, Canada

Feed Status: UP
Listen in your browser - HTML5 player(in browser, HTML5)
Click here to listen with your own player(launches your MP3 player)

CYVO 151300Z VRB02KT 15SM SCT035 11/01 A3019 RMK CU4 SLP237

CYVO Flight Activity (Flightaware)

Listeners: 2 out of 2103 total

Emergency/Guard: 121.500
Montreal Centre: 125.900
Rouyn RDO (FSS): 118.500
Val-d'Or Ground Services: 122.600
Val-D'Or VFR En Route: 126.700

CYVR App/Dep #1 (Archives)
Vancouver, British Columbia, Canada

Feed Status: UP
Listen in your browser - HTML5 player(in browser, HTML5)
Click here to listen with your own player(launches your MP3 player)

CYVR 151300Z VRB04KT 15SM FEW015 SCT021 BKN034 BKN066 BKN170 11/09 A2997 RMK SF1CU3SC2AC1AC1 SF TR SH DIST N-NE SLP151

CYVR Flight Activity (Flightaware)

Listeners: 8 out of 2103 total

Vancouver Terminal (Arrival High Outer): 128.600
Vancouver Terminal (Arrival Inner): 134.225
Vancouver Terminal (Arrival Low Inner): 133.100
Vancouver Terminal (Arrival Outer): 128.175
Vancouver Terminal (Departure North): 126.125
Vancouver Terminal (Departure South): 132.300
Vancouver Terminal (Departure South): 132.300
Vancouver Terminal (TRSA): 125.200

CYVR App/Dep #2 (Archives)
Vancouver, British Columbia, Canada

Feed Status: UP
Listen in your browser - HTML5 player(in browser, HTML5)
Click here to listen with your own player(launches your MP3 player)

CYVR 151300Z VRB04KT 15SM FEW015 SCT021 BKN034 BKN066 BKN170 11/09 A2997 RMK SF1CU3SC2AC1AC1 SF TR SH DIST N-NE SLP151

CYVR Flight Activity (Flightaware)

Listeners: 1 out of 2103 total

Vancouver Terminal (Arrival High Outer): 128.600
Vancouver Terminal (Arrival Low Inner): 133.100
Vancouver Terminal (Departure North): 126.125
Vancouver Terminal (Departure South): 132.300
Vancouver Terminal (ILS Monitor): 120.500
Vancouver Terminal (ILS Monitor): 128.175
Vancouver Terminal (TRSA): 125.200

CYVR Del/Gnd (Archives)
Vancouver, British Columbia, Canada

Feed Status: UP
Listen in your browser - HTML5 player(in browser, HTML5)
Click here to listen with your own player(launches your MP3 player)

CYVR 151300Z VRB04KT 15SM FEW015 SCT021 BKN034 BKN066 BKN170 11/09 A2997 RMK SF1CU3SC2AC1AC1 SF TR SH DIST N-NE SLP151

CYVR Flight Activity (Flightaware)

Listeners: 0 out of 2103 total

Emergency (Discrete): 122.675
Vancouver Clearance Delivery: 121.400
Vancouver Ground (North): 121.700
Vancouver Ground (South): 127.150

CYVR Del/Gnd/Twr #1 (Archives)
Vancouver, British Columbia, Canada

Feed Status: UP
Listen in your browser - HTML5 player(in browser, HTML5)
Click here to listen with your own player(launches your MP3 player)

CYVR 151300Z VRB04KT 15SM FEW015 SCT021 BKN034 BKN066 BKN170 11/09 A2997 RMK SF1CU3SC2AC1AC1 SF TR SH DIST N-NE SLP151

CYVR Flight Activity (Flightaware)

Listeners: 0 out of 2103 total

Emergency (Discrete): 122.675
Vancouver Clearance Delivery: 121.400
Vancouver Ground (North): 121.700
Vancouver Ground (South): 127.150
Vancouver Tower (Backup): 120.150
Vancouver Tower (North): 119.550
Vancouver Tower (Outer): 124.000
Vancouver Tower (South): 118.700
Vancouver Tower (VFR): 125.650

CYVR Del/Gnd/Twr/App (Archives)
Vancouver, British Columbia, Canada

Feed Status: UP
Listen in your browser - HTML5 player(in browser, HTML5)
Click here to listen with your own player(launches your MP3 player)

CYVR 151300Z VRB04KT 15SM FEW015 SCT021 BKN034 BKN066 BKN170 11/09 A2997 RMK SF1CU3SC2AC1AC1 SF TR SH DIST N-NE SLP151

CYVR Flight Activity (Flightaware)

Listeners: 0 out of 2103 total

Vancouver Clearance Delivery: 121.400
Vancouver Ground (North): 127.150
Vancouver Ground (South): 121.700
Vancouver Terminal (Departures): 132.300
Vancouver Terminal (Departures): 126.125
Vancouver Terminal (Hi, Outer): 128.600
Vancouver Terminal (ILS Monitor): 128.175
Vancouver Terminal (Lo, Inner): 133.100
Vancouver Terminal (TRSA): 125.200
Vancouver Tower: 125.650
Vancouver Tower (Backup): 120.150
Vancouver Tower (North): 119.550
Vancouver Tower (Outer): 124.000
Vancouver Tower (South): 118.700

CYVR Tower (Archives)
Vancouver, British Columbia, Canada

Feed Status: UP
Listen in your browser - HTML5 player(in browser, HTML5)
Click here to listen with your own player(launches your MP3 player)

CYVR 151300Z VRB04KT 15SM FEW015 SCT021 BKN034 BKN066 BKN170 11/09 A2997 RMK SF1CU3SC2AC1AC1 SF TR SH DIST N-NE SLP151

CYVR Flight Activity (Flightaware)

Listeners: 0 out of 2103 total

Vancouver Tower (Backup): 120.150
Vancouver Tower (North): 119.550
Vancouver Tower (Outer): 124.000
Vancouver Tower (South): 118.700
Vancouver Tower (VFR): 125.650

CZVR Vancouver ACC (Archives)
Vancouver, British Columbia, Canada

Feed Status: UP
Listen in your browser - HTML5 player(in browser, HTML5)
Click here to listen with your own player(launches your MP3 player)

CYVR 151300Z VRB04KT 15SM FEW015 SCT021 BKN034 BKN066 BKN170 11/09 A2997 RMK SF1CU3SC2AC1AC1 SF TR SH DIST N-NE SLP151

CYVR Flight Activity (Flightaware)

Listeners: 4 out of 2103 total

ARINC En Route (SFO): 129.400
Vancouver East (Bruce Peak): 125.950
Vancouver East (Simulcast): 135.325
Vancouver East (Vancouver): 133.700
Vancouver North (Bruce Peak): 134.400
Vancouver North (Simulcast): 127.925
Vancouver West (Tofino): 132.900
Vancouver West (Tofino): 134.925
Vancouver West (Vancouver): 134.800

CYWG App/Dep (Archives)
Winnipeg, Manitoba, Canada

Feed Status: UP
Listen in your browser - HTML5 player(in browser, HTML5)
Click here to listen with your own player(launches your MP3 player)

CYWG 151300Z 16014G19KT 15SM SCT073 SCT250 19/14 A2979 RMK AC3CI1 CI TR SLP090 DENSITY ALT 1700FT

CYWG Flight Activity (Flightaware)

Listeners: 1 out of 2103 total

Winnipeg Approach/Departure: 119.500
Winnipeg Approach/Departure: 119.900
Winnipeg Approach/Departure: 121.000

CYWG ATIS (Archives)
Winnipeg, Manitoba, Canada

Feed Status: UP
Listen in your browser - HTML5 player(in browser, HTML5)
Click here to listen with your own player(launches your MP3 player)

CYWG 151300Z 16014G19KT 15SM SCT073 SCT250 19/14 A2979 RMK AC3CI1 CI TR SLP090 DENSITY ALT 1700FT

CYWG Flight Activity (Flightaware)

Listeners: 0 out of 2103 total

Winnipeg ATIS: 120.200

CYWG Center (Archives)
Winnipeg, Manitoba, Canada

Feed Status: UP
Listen in your browser - HTML5 player(in browser, HTML5)
Click here to listen with your own player(launches your MP3 player)

CYWG 151300Z 16014G19KT 15SM SCT073 SCT250 19/14 A2979 RMK AC3CI1 CI TR SLP090 DENSITY ALT 1700FT

CYWG Flight Activity (Flightaware)

Listeners: 3 out of 2103 total

Winnipeg Center: 132.250
Winnipeg Center: 134.400

CYWG Del/Gnd/Twr (Archives)
Winnipeg, Manitoba, Canada

Feed Status: UP
Listen in your browser - HTML5 player(in browser, HTML5)
Click here to listen with your own player(launches your MP3 player)

CYWG 151300Z 16014G19KT 15SM SCT073 SCT250 19/14 A2979 RMK AC3CI1 CI TR SLP090 DENSITY ALT 1700FT

CYWG Flight Activity (Flightaware)

Listeners: 2 out of 2103 total

Winnipeg Clearance: 121.300
Winnipeg Ground: 121.900
Winnipeg Tower: 118.300

CYWH FISE/Terminal (Archives)
Victoria, British Columbia, Canada

Feed Status: UP
Listen in your browser - HTML5 player(in browser, HTML5)
Click here to listen with your own player(launches your MP3 player)

CYWH 151300Z 26007KT 15SM FEW015 BKN045 BKN070 11/07 A3000 RMK CF1SC4AC2 SLP160

CYWH Flight Activity (Flightaware)

Listeners: 0 out of 2103 total

Pacific Radio (FISE): 125.850
Victoria Harbour Radio: 122.200
Victoria Terminal: 127.800

CYXE App/Dep/Center (Archives)
Saskatoon, Saskatchewan, Canada

Feed Status: UP
Listen in your browser - HTML5 player(in browser, HTML5)
Click here to listen with your own player(launches your MP3 player)

CYXE 151300Z 29007KT 15SM SCT260 12/11 A2964 RMK CI4 SLP042 DENSITY ALT 2000FT

CYXE Flight Activity (Flightaware)

Listeners: 0 out of 2103 total


CYXE Area VFR/Misc (Archives)
Saskatoon, Saskatchewan, Canada

Feed Status: UP
Listen in your browser - HTML5 player(in browser, HTML5)
Click here to listen with your own player(launches your MP3 player)

CYXE 151300Z 29007KT 15SM SCT260 12/11 A2964 RMK CI4 SLP042 DENSITY ALT 2000FT

CYXE Flight Activity (Flightaware)

Listeners: 0 out of 2103 total


CYXE Gnd/Twr (Archives)
Saskatoon, Saskatchewan, Canada

Feed Status: UP
Listen in your browser - HTML5 player(in browser, HTML5)
Click here to listen with your own player(launches your MP3 player)

CYXE 151300Z 29007KT 15SM SCT260 12/11 A2964 RMK CI4 SLP042 DENSITY ALT 2000FT

CYXE Flight Activity (Flightaware)

Listeners: 0 out of 2103 total

Saskatoon Ground: 121.900
Saskatoon Tower: 118.300

CYYC App/Dep (Archives)
Calgary, Alberta, Canada

Feed Status: UP
Listen in your browser - HTML5 player(in browser, HTML5)
Click here to listen with your own player(launches your MP3 player)

CYYC 151300Z 33008KT 300V050 15SM BKN076 OVC170 10/03 A2983 RMK AC5AS3 SLP104 DENSITY ALT 4100FT

CYYC Flight Activity (Flightaware)

Listeners: 0 out of 2103 total

Calgary Arrivals: 125.900
Calgary Departures: 119.800

CYYC Tower #1 (Archives)
Calgary, Alberta, Canada

Feed Status: UP
Listen in your browser - HTML5 player(in browser, HTML5)
Click here to listen with your own player(launches your MP3 player)

CYYC 151300Z 33008KT 300V050 15SM BKN076 OVC170 10/03 A2983 RMK AC5AS3 SLP104 DENSITY ALT 4100FT

CYYC Flight Activity (Flightaware)

Listeners: 1 out of 2103 total

Calgary Tower: 118.400

CYYC Twr/App/Center
Calgary, Alberta, Canada

Feed Status: DOWN
Offline since: 2023-06-14 23:14:05 UTC

CYYC 151300Z 33008KT 300V050 15SM BKN076 OVC170 10/03 A2983 RMK AC5AS3 SLP104 DENSITY ALT 4100FT

Calgary Arrivals: 125.900
Calgary Departures: 119.800
Calgary Tower: 118.400
Edmonton Center (Banff Sector): 133.300

CYYC Twr/App/Dep (Archives)
Calgary, Alberta, Canada

Feed Status: UP
Listen in your browser - HTML5 player(in browser, HTML5)
Click here to listen with your own player(launches your MP3 player)

CYYC 151300Z 33008KT 300V050 15SM BKN076 OVC170 10/03 A2983 RMK AC5AS3 SLP104 DENSITY ALT 4100FT

CYYC Flight Activity (Flightaware)

Listeners: 0 out of 2103 total

Calgary Arrivals: 125.900
Calgary Departures: 119.800
Calgary Tower: 118.400

CYYR Del/Gnd/Twr/App #1 (Archives)
Goose Bay, Newfoundland, Canada

Feed Status: UP
Listen in your browser - HTML5 player(in browser, HTML5)
Click here to listen with your own player(launches your MP3 player)

CYYR 151300Z 24011G19KT 15SM BKN040 17/06 A2973 RMK SC6 DENSITY ALT 807FT SLP069

CYYR Flight Activity (Flightaware)

Listeners: 2 out of 2103 total

Goose Bay Clearance Delivery: 118.100
Goose Bay Ground: 121.900
Goose Bay Terminal: 119.500
Goose Bay Tower: 119.100
Halifax Radio: 126.700
Halifax Radio (FIS): 123.475
PAR: 119.900
Ranger Base: 129.300
Wing Ops: 129.850

CYYR Del/Gnd/Twr/App #2 (Archives)
Goose Bay, Newfoundland, Canada

Feed Status: UP
Listen in your browser - HTML5 player(in browser, HTML5)
Click here to listen with your own player(launches your MP3 player)

CYYR 151300Z 24011G19KT 15SM BKN040 17/06 A2973 RMK SC6 DENSITY ALT 807FT SLP069

CYYR Flight Activity (Flightaware)

Listeners: 0 out of 2103 total

Goose Bay Clearance Delivery: 118.100
Goose Bay Ground: 121.900
Goose Bay Terminal: 119.500
Goose Bay Tower: 119.100
Halifax Radio: 126.700
Halifax Radio (FIS): 123.475
PAR: 119.900
Ranger Base: 129.300
Wing Ops: 129.850

CYYR Del/Gnd/Twr/App/Center (Archives)
Goose Bay, Newfoundland, Canada

Feed Status: UP
Listen in your browser - HTML5 player(in browser, HTML5)
Click here to listen with your own player(launches your MP3 player)

CYYR 151300Z 24011G19KT 15SM BKN040 17/06 A2973 RMK SC6 DENSITY ALT 807FT SLP069

CYYR Flight Activity (Flightaware)

Listeners: 3 out of 2103 total

Gander Center (FL280 and below): 120.400
Gander Center (FL290 and above): 133.425
Gander Center (FL290 and above): 132.400
Gander Center (FL290 and above): 127.675
Goose Bay Clearance Delivery: 118.100
Goose Bay Ground: 121.900
Goose Bay Terminal: 119.500
Goose Bay Tower: 119.100
Halifax Radio: 126.700
Halifax Radio (FIS): 123.475
PAR: 119.900
Ranger Base: 129.300
Wing Ops: 129.850

CYYR Gander Center (Archives)
Goose Bay, Newfoundland, Canada

Feed Status: UP
Listen in your browser - HTML5 player(in browser, HTML5)
Click here to listen with your own player(launches your MP3 player)

CYYR 151300Z 24011G19KT 15SM BKN040 17/06 A2973 RMK SC6 DENSITY ALT 807FT SLP069

CYYR Flight Activity (Flightaware)

Listeners: 3 out of 2103 total

Gander Center (FL280 and below): 120.400
Gander Center (FL290 and above): 127.675
Gander Center (FL290 and above): 132.400
Gander Center (FL290 and above): 133.425

CYYT ATIS (Archives)
St. John's, Newfoundland, Canada

Feed Status: UP
Listen in your browser - HTML5 player(in browser, HTML5)
Click here to listen with your own player(launches your MP3 player)

CYYT 151300Z 26017G23KT 15SM FEW020 FEW160 SCT230 SCT240 20/15 A3000 RMK SC1AC1CI2CI1 SC TR SLP161 DENSITY ALT 1200FT

CYYT Flight Activity (Flightaware)

Listeners: 0 out of 2103 total

St. John's ATIS: 128.000

CYYT Ground (Archives)
St. John's, Newfoundland, Canada

Feed Status: UP
Listen in your browser - HTML5 player(in browser, HTML5)
Click here to listen with your own player(launches your MP3 player)

CYYT 151300Z 26017G23KT 15SM FEW020 FEW160 SCT230 SCT240 20/15 A3000 RMK SC1AC1CI2CI1 SC TR SLP161 DENSITY ALT 1200FT

CYYT Flight Activity (Flightaware)

Listeners: 0 out of 2103 total

St. John's Ground: 121.900

CYYT Ground/Tower (Archives)
St. John's, Newfoundland, Canada

Feed Status: UP
Listen in your browser - HTML5 player(in browser, HTML5)
Click here to listen with your own player(launches your MP3 player)

CYYT 151300Z 26017G23KT 15SM FEW020 FEW160 SCT230 SCT240 20/15 A3000 RMK SC1AC1CI2CI1 SC TR SLP161 DENSITY ALT 1200FT

CYYT Flight Activity (Flightaware)

Listeners: 0 out of 2103 total

St. John's Ground: 121.900
St. John's Tower: 120.600

CYYT Tower (Archives)
St. John's, Newfoundland, Canada

Feed Status: UP
Listen in your browser - HTML5 player(in browser, HTML5)
Click here to listen with your own player(launches your MP3 player)

CYYT 151300Z 26017G23KT 15SM FEW020 FEW160 SCT230 SCT240 20/15 A3000 RMK SC1AC1CI2CI1 SC TR SLP161 DENSITY ALT 1200FT

CYYT Flight Activity (Flightaware)

Listeners: 0 out of 2103 total

St. John's Tower: 120.600

Gander Center 133.150 (Archives)
St. John's, Newfoundland, Canada

Feed Status: UP
Listen in your browser - HTML5 player(in browser, HTML5)
Click here to listen with your own player(launches your MP3 player)

CYYT 151300Z 26017G23KT 15SM FEW020 FEW160 SCT230 SCT240 20/15 A3000 RMK SC1AC1CI2CI1 SC TR SLP161 DENSITY ALT 1200FT

CYYT Flight Activity (Flightaware)

Listeners: 4 out of 2103 total

Gander Center: 133.150

Gander Radio 122.375 (Archives)
St. John's, Newfoundland, Canada

Feed Status: UP
Listen in your browser - HTML5 player(in browser, HTML5)
Click here to listen with your own player(launches your MP3 player)

CYYT 151300Z 26017G23KT 15SM FEW020 FEW160 SCT230 SCT240 20/15 A3000 RMK SC1AC1CI2CI1 SC TR SLP161 DENSITY ALT 1200FT

CYYT Flight Activity (Flightaware)

Listeners: 1 out of 2103 total

Gander Radio (International Air Radio): 122.375

CYYZ Apron (Archives)
Toronto, Ontario, Canada

Feed Status: UP
Listen in your browser - HTML5 player(in browser, HTML5)
Click here to listen with your own player(launches your MP3 player)

CYYZ 151300Z 01008KT 290V030 15SM SKC 16/09 A3016 RMK SLP214

CYYZ Flight Activity (Flightaware)

Listeners: 0 out of 2103 total

Toronto Apron (Backup): 122.825
Toronto Apron (North): 122.275
Toronto Apron (South): 122.075

CYYZ Apron (Backup) (Archives)
Toronto, Ontario, Canada

Feed Status: UP
Listen in your browser - HTML5 player(in browser, HTML5)
Click here to listen with your own player(launches your MP3 player)

CYYZ 151300Z 01008KT 290V030 15SM SKC 16/09 A3016 RMK SLP214

CYYZ Flight Activity (Flightaware)

Listeners: 0 out of 2103 total

Toronto Apron (Backup): 122.825

CYYZ Apron (North) (Archives)
Toronto, Ontario, Canada

Feed Status: UP
Listen in your browser - HTML5 player(in browser, HTML5)
Click here to listen with your own player(launches your MP3 player)

CYYZ 151300Z 01008KT 290V030 15SM SKC 16/09 A3016 RMK SLP214

CYYZ Flight Activity (Flightaware)

Listeners: 0 out of 2103 total

Toronto Apron (North): 122.275

CYYZ Apron (South) (Archives)
Toronto, Ontario, Canada

Feed Status: UP
Listen in your browser - HTML5 player(in browser, HTML5)
Click here to listen with your own player(launches your MP3 player)

CYYZ 151300Z 01008KT 290V030 15SM SKC 16/09 A3016 RMK SLP214

CYYZ Flight Activity (Flightaware)

Listeners: 0 out of 2103 total

Toronto Apron (South): 122.075

CYYZ Apron Coordinator (Archives)
Toronto, Ontario, Canada

Feed Status: UP
Listen in your browser - HTML5 player(in browser, HTML5)
Click here to listen with your own player(launches your MP3 player)

CYYZ 151300Z 01008KT 290V030 15SM SKC 16/09 A3016 RMK SLP214

CYYZ Flight Activity (Flightaware)

Listeners: 0 out of 2103 total

Toronto Apron Coordinator: 122.875

CYYZ Arrival (Archives)
Toronto, Ontario, Canada

Feed Status: UP
Listen in your browser - HTML5 player(in browser, HTML5)
Click here to listen with your own player(launches your MP3 player)

CYYZ 151300Z 01008KT 290V030 15SM SKC 16/09 A3016 RMK SLP214

CYYZ Flight Activity (Flightaware)

Listeners: 3 out of 2103 total

Toronto Terminal (Arrivals): 132.800
Toronto Terminal (Arrivals): 124.475
Toronto Terminal (Arrivals): 125.400

CYYZ ATIS (Archives)
Toronto, Ontario, Canada

Feed Status: UP
Listen in your browser - HTML5 player(in browser, HTML5)
Click here to listen with your own player(launches your MP3 player)

CYYZ 151300Z 01008KT 290V030 15SM SKC 16/09 A3016 RMK SLP214

CYYZ Flight Activity (Flightaware)

Listeners: 0 out of 2103 total

Toronto ATIS: 120.825

CYYZ Clearance Delivery (Archives)
Toronto, Ontario, Canada

Feed Status: UP
Listen in your browser - HTML5 player(in browser, HTML5)
Click here to listen with your own player(launches your MP3 player)

CYYZ 151300Z 01008KT 290V030 15SM SKC 16/09 A3016 RMK SLP214

CYYZ Flight Activity (Flightaware)

Listeners: 0 out of 2103 total

Emergency/Guard: 121.500
Toronto Clearance Delivery: 121.300

CYYZ Departure (Archives)
Toronto, Ontario, Canada

Feed Status: UP
Listen in your browser - HTML5 player(in browser, HTML5)
Click here to listen with your own player(launches your MP3 player)

CYYZ 151300Z 01008KT 290V030 15SM SKC 16/09 A3016 RMK SLP214

CYYZ Flight Activity (Flightaware)

Listeners: 0 out of 2103 total

Toronto Departure: 127.575
Toronto Departure: 128.800

CYYZ Discrete/Emergency (Archives)
Toronto, Ontario, Canada

Feed Status: UP
Listen in your browser - HTML5 player(in browser, HTML5)
Click here to listen with your own player(launches your MP3 player)

CYYZ 151300Z 01008KT 290V030 15SM SKC 16/09 A3016 RMK SLP214

CYYZ Flight Activity (Flightaware)

Listeners: 0 out of 2103 total

Toronto Discrete/Emergency: 122.675

CYYZ Ground (Archives)
Toronto, Ontario, Canada

Feed Status: UP
Listen in your browser - HTML5 player(in browser, HTML5)
Click here to listen with your own player(launches your MP3 player)

CYYZ 151300Z 01008KT 290V030 15SM SKC 16/09 A3016 RMK SLP214

CYYZ Flight Activity (Flightaware)

Listeners: 1 out of 2103 total

Toronto Ground: 119.100
Toronto Ground: 121.650
Toronto Ground: 121.900

CYYZ Ground 121.65 (Archives)
Toronto, Ontario, Canada

Feed Status: UP
Listen in your browser - HTML5 player(in browser, HTML5)
Click here to listen with your own player(launches your MP3 player)

CYYZ 151300Z 01008KT 290V030 15SM SKC 16/09 A3016 RMK SLP214

CYYZ Flight Activity (Flightaware)

Listeners: 1 out of 2103 total

Toronto Ground: 121.650

CYYZ Ground 121.9 (Archives)
Toronto, Ontario, Canada

Feed Status: UP
Listen in your browser - HTML5 player(in browser, HTML5)
Click here to listen with your own player(launches your MP3 player)

CYYZ 151300Z 01008KT 290V030 15SM SKC 16/09 A3016 RMK SLP214

CYYZ Flight Activity (Flightaware)

Listeners: 0 out of 2103 total

Toronto Ground: 121.900

CYYZ Tower (Archives)
Toronto, Ontario, Canada

Feed Status: UP
Listen in your browser - HTML5 player(in browser, HTML5)
Click here to listen with your own player(launches your MP3 player)

CYYZ 151300Z 01008KT 290V030 15SM SKC 16/09 A3016 RMK SLP214

CYYZ Flight Activity (Flightaware)

Listeners: 7 out of 2103 total

Pearson Tower (North): 118.700
Pearson Tower (South): 118.350

Toronto Center (Barrie) (Archives)
Toronto, Ontario, Canada

Feed Status: UP
Listen in your browser - HTML5 player(in browser, HTML5)
Click here to listen with your own player(launches your MP3 player)

CZYZ Flight Activity (Flightaware)

Listeners: 1 out of 2103 total

Toronto Center (Barrie Sector, East High): 134.575

Toronto Center (East Satellite) (Archives)
Toronto, Ontario, Canada

Feed Status: UP
Listen in your browser - HTML5 player(in browser, HTML5)
Click here to listen with your own player(launches your MP3 player)

CZYZ Flight Activity (Flightaware)

Listeners: 1 out of 2103 total

Toronto Center (East Satellite Sector): 133.400

Toronto Center (Hamilton) #1 (Archives)
Toronto, Ontario, Canada

Feed Status: UP
Listen in your browser - HTML5 player(in browser, HTML5)
Click here to listen with your own player(launches your MP3 player)

CZYZ Flight Activity (Flightaware)

Listeners: 1 out of 2103 total

Toronto Center (Hamilton Sector, West Low): 132.475

Toronto Center (Hamilton) #2
Toronto, Ontario, Canada

Feed Status: DOWN
Offline since: 2024-05-28 18:13:22 UTC

CYTZ 151300Z AUTO 29006KT 230V340 7SM CLR 18/09 A3014 RMK SLP210

Toronto Center (Hamilton Sector, West Low): 132.475

Toronto Center (Oakville) (Archives)
Toronto, Ontario, Canada

Feed Status: UP
Listen in your browser - HTML5 player(in browser, HTML5)
Click here to listen with your own player(launches your MP3 player)

CZYZ Flight Activity (Flightaware)

Listeners: 1 out of 2103 total

Toronto Center (Oakville Sector, West High): 134.925

CYZF Gnd/Twr/Center (Archives)
Yellowknife, Northwest Territories, Canada

Feed Status: UP
Listen in your browser - HTML5 player(in browser, HTML5)
Click here to listen with your own player(launches your MP3 player)

CYZF 151300Z 09006KT 15SM BKN078 BKN240 10/05 A2987 RMK AC7CI1 CI TR SLP126

CYZF Flight Activity (Flightaware)

Listeners: 2 out of 2103 total

Edmonton Centre: 135.800
Yellowknife Ground: 121.900
Yellowknife Tower: 118.500

CYZX App/Dep/PAR (Archives)
Greenwood, Nova Scotia, Canada

Feed Status: UP
Listen in your browser - HTML5 player(in browser, HTML5)
Click here to listen with your own player(launches your MP3 player)

CYZX 151300Z 14005KT 3SM -SHRA BR SCT012 OVC018 16/15 A2982 RMK SF3SC5 DENSITY ALT 589FT VIS VRB 2-4 SLP098

CYZX Flight Activity (Flightaware)

Listeners: 0 out of 2103 total

Greenwood Approach/Departure: 120.600
Greenwood PAR: 118.100
Greenwood Terminal: 126.200

CYZX Del/Ground (Archives)
Greenwood, Nova Scotia, Canada

Feed Status: UP
Listen in your browser - HTML5 player(in browser, HTML5)
Click here to listen with your own player(launches your MP3 player)

CYZX 151300Z 14005KT 3SM -SHRA BR SCT012 OVC018 16/15 A2982 RMK SF3SC5 DENSITY ALT 589FT VIS VRB 2-4 SLP098

CYZX Flight Activity (Flightaware)

Listeners: 0 out of 2103 total

Greenwood Clearance Delivery: 128.025
Greenwood Clearance Delivery: 283.900
Greenwood Ground: 133.750
Greenwood Ground: 289.400

CYZX Tower (Archives)
Greenwood, Nova Scotia, Canada

Feed Status: UP
Listen in your browser - HTML5 player(in browser, HTML5)
Click here to listen with your own player(launches your MP3 player)

CYZX 151300Z 14005KT 3SM -SHRA BR SCT012 OVC018 16/15 A2982 RMK SF3SC5 DENSITY ALT 589FT VIS VRB 2-4 SLP098

CYZX Flight Activity (Flightaware)

Listeners: 0 out of 2103 total

Greenwood Tower: 119.500
Greenwood Tower: 324.300

CZBB Tower (Inner)
Boundary Bay, British Columbia, Canada

Feed Status: DOWN
Offline since: 2024-05-16 22:18:22 UTC

Boundary Bay Tower (Inner): 118.100